This is the latest recevied weather packets stored in our database for station/object WA7SB-7. If no packets are shown the sender has not sent any weather packets the latest 10 day(s).
| Time | Temp. | Humidity | Pressure | Rain* | Wind** | Luminosity | Snow |
|---|---|---|---|---|---|---|---|
| 1787861062 | 20° C | 73% | 1020.4 hPa | 0 mm | - | - | - |
| 1787860814 | 20° C | 72% | 1020.3 hPa | 0 mm | - | - | - |
| 1787860758 | 20° C | 72% | 1020.3 hPa | 0 mm | - | - | - |
| 1787860521 | 20° C | 72% | 1020.2 hPa | 0 mm | - | - | - |
| 1787860463 | 20° C | 73% | 1020.2 hPa | 0 mm | - | - | - |
| 1787860230 | 20° C | 71% | 1020.3 hPa | 0 mm | - | - | - |
| 1787860154 | 20° C | 71% | 1020.3 hPa | 0 mm | - | - | - |
| 1787859920 | 20° C | 72% | 1020.3 hPa | 0 mm | - | - | - |
| 1787859860 | 20° C | 73% | 1020.3 hPa | 0 mm | - | - | - |
| 1787859625 | 20° C | 71% | 1020.2 hPa | 0 mm | - | - | - |
| 1787859567 | 20.56° C | 69% | 1020.2 hPa | 0 mm | - | - | - |
| 1787859333 | 20.56° C | 70% | 1020.2 hPa | 0 mm | - | - | - |
| 1787859254 | 20.56° C | 70% | 1020.1 hPa | 0 mm | - | - | - |
| 1787859016 | 20.56° C | 71% | 1020.1 hPa | 0 mm | - | - | - |
| 1787858958 | 20.56° C | 69% | 1020.1 hPa | 0 mm | - | - | - |
| 1787858721 | 20° C | 72% | 1020.3 hPa | 0 mm | - | - | - |
| 1787858663 | 20° C | 72% | 1020.3 hPa | 0 mm | - | - | - |
| 1787858425 | 20° C | 72% | 1020.2 hPa | 0 mm | - | - | - |
| 1787858368 | 20° C | 72% | 1020.2 hPa | 0 mm | - | - | - |
| 1787858130 | 20° C | 70% | 1020.2 hPa | 0 mm | - | - | - |
| 1787858052 | 20° C | 71% | 1020.2 hPa | 0 mm | - | - | - |
| 1787857816 | 20° C | 70% | 1020.1 hPa | 0 mm | - | - | - |
| 1787857758 | 20° C | 72% | 1020.1 hPa | 0 mm | - | - | - |
| 1787857463 | 20° C | 71% | 1020.1 hPa | 0 mm | - | - | - |
| 1787857231 | 20° C | 72% | 1020.2 hPa | 0 mm | - | - | - |
* Rain latest hour (hover to see other rain measurements)
** Current wind speed in m/s (hover to see current wind gust speed)